Weather in Chapaev

Kazakhstan     50°11′26″N   51°10′14″E
temp.,
°C
wind,
m/s
gust,
m/s
humid.,
%
clouds,
%
prec.,
mm/h
press.,
hPa
HPBL,
m
8 march, mon
mon823:00−11sw488920 0.0 1017104
02:00−8ssw7158193 0.0 1016391
05:00−5sw9187896 0.0 1013630
08:00−5sw91881100 0.0 1011673
11:00−3sw11178582 0.0 1012929
14:00−1sw111588100 0.1 10121099
17:000sw101486100 0.3 10111230
20:00−1sw7148698 0.0 1012570
9 march, tue
tue923:00−1sw8158598 0.1 1012566
02:00−2sw71586100 0.0 1011484
05:00−2sw61291100 0.1 1012385
08:00−2ssw5109699 0.6 1011335
11:00−1ssw6995100 0.7 1011443
14:000ssw61099100 0.0 1009584
17:00+1ssw61296100 0.1 1008724
20:000sw71298100 0.6 1006649
10 march, wed
wed1023:00−6wnw81489100 1.1 1008451
02:00−10w6119320 0.0 1009265
05:00−12w5119434 0.0 1011207
08:00−14w599541 0.0 1013197
11:00−11wnw689368 0.1 1014368
14:00−11wnw7989100 0.0 1016535
17:00−11wnw7108795 0.0 1017618
20:00−15wnw5119397 0.0 1018294
11 march, thu
thu1123:00−18wnw599562 0.0 1020194
02:00−19wnw499761 0.0 1021167
05:00−21nw599437 0.0 1022198
08:00−23nw48940 0.0 1024179
11:00−21nw57920 0.0 1026307
14:00−19nw579029 0.0 1027366
17:00−17nw578814 0.0 1028395
20:00−21wnw44940 0.0 102860
12 march, fri
fri1223:00−22nw34940 0.0 103046
02:00−22wnw33940 0.0 103129
05:00−22wnw33960 0.0 103132
08:00−22wnw22977 0.0 103220
11:00−17nw22904 0.0 1033198
14:00−12nnw348677 0.0 1034336
17:00−11nnw348985 0.0 1033335
20:00−16nnw339428 0.0 103420